ERBS - Orbit

View from above orbital plane
View from above orbital plane
View from above satellite
View from above satellite

Ground track
Ground track

The orbit data is extracted from the following two-line orbital elements,

1 15354U 84108B   13138.83710090  .00007967  00000-0  34665-3 0  2239
2 15354 057.0198 344.6042 0018566 169.7789 190.3638 15.23017404569452
Epoch (UTC): 18 May 2013 20:05:25
Eccentricity: 0.0018566
inclination: 57.0198°
perigee height: 484 km
apogee height: 509 km
right ascension of ascending node: 344.6042°
argument of perigee: 169.7789°
revolutions per day: 15.23017404
mean anomaly at epoch: 190.3638°
orbit number at epoch: 56945

The dashed part of the orbit path shows where the satellite is in the earth's shadow,  

Developed and maintained by Chris Peat, Heavens-Above GmbH. Please read the updated FAQ before sending e-mail. Imprint. DLR